TimeEDT,TemperatureF,Dew PointF,Humidity,Sea Level PressureIn,VisibilityMPH,Wind Direction,Wind SpeedMPH,Gust SpeedMPH,PrecipitationIn,Events,Conditions,WindDirDegrees,DateUTC
12:15 AM,68.5,62.8,82,30.01,7.0,South,8.1,-,N/A,,Clear,180,2014-05-13 04:15:00
12:35 AM,68.2,62.6,82,30.01,10.0,South,9.2,-,N/A,,Clear,170,2014-05-13 04:35:00
12:55 AM,68.2,62.6,82,30.01,7.0,South,9.2,-,N/A,,Clear,170,2014-05-13 04:55:00
1:15 AM,68.2,62.8,83,30.01,10.0,South,10.4,-,N/A,,Clear,170,2014-05-13 05:15:00
1:35 AM,68.2,62.8,83,30.00,7.0,South,8.1,-,N/A,,Clear,170,2014-05-13 05:35:00
1:55 AM,68.2,62.8,83,29.99,10.0,South,9.2,-,N/A,,Clear,170,2014-05-13 05:55:00
2:15 AM,68.4,62.8,82,29.98,10.0,South,8.1,-,N/A,,Clear,170,2014-05-13 06:15:00
2:35 AM,68.0,62.8,83,29.97,10.0,SSE,6.9,-,N/A,,Clear,160,2014-05-13 06:35:00
2:55 AM,67.6,62.8,84,29.97,10.0,South,4.6,-,N/A,,Clear,170,2014-05-13 06:55:00
3:15 AM,67.5,63.0,85,29.96,10.0,South,5.8,-,N/A,,Scattered Clouds,180,2014-05-13 07:15:00
3:35 AM,67.5,63.1,86,29.96,7.0,South,8.1,-,N/A,,Scattered Clouds,190,2014-05-13 07:35:00
3:55 AM,68.4,63.7,85,29.96,10.0,South,9.2,-,N/A,,Scattered Clouds,190,2014-05-13 07:55:00
4:15 AM,69.3,63.7,82,29.96,10.0,South,10.4,-,N/A,,Scattered Clouds,190,2014-05-13 08:15:00
4:35 AM,69.6,63.7,81,29.96,7.0,SSW,9.2,-,N/A,,Scattered Clouds,200,2014-05-13 08:35:00
4:55 AM,69.3,63.7,82,29.96,10.0,SSW,10.4,-,N/A,,Mostly Cloudy,200,2014-05-13 08:55:00
5:15 AM,69.3,63.7,82,29.96,10.0,SSW,10.4,-,N/A,,Overcast,200,2014-05-13 09:15:00
5:35 AM,69.3,63.7,82,29.96,7.0,South,10.4,-,N/A,,Overcast,190,2014-05-13 09:35:00
5:55 AM,69.3,63.5,82,29.96,10.0,SSW,10.4,-,N/A,,Overcast,200,2014-05-13 09:55:00
6:15 AM,68.9,63.5,83,29.96,10.0,SSW,9.2,-,N/A,,Overcast,200,2014-05-13 10:15:00
6:35 AM,68.5,63.5,84,29.96,7.0,SSW,9.2,-,N/A,,Scattered Clouds,200,2014-05-13 10:35:00
6:55 AM,68.2,63.5,85,29.96,5.0,SSW,9.2,-,N/A,,Scattered Clouds,200,2014-05-13 10:55:00
7:15 AM,68.4,63.7,85,29.97,7.0,SSW,10.4,-,N/A,,Mostly Cloudy,200,2014-05-13 11:15:00
7:35 AM,69.1,64.0,84,29.98,5.0,South,12.7,-,N/A,,Haze,190,2014-05-13 11:35:00
7:55 AM,69.6,64.4,83,29.98,7.0,South,11.5,-,N/A,,Overcast,190,2014-05-13 11:55:00
9:15 AM,72.3,65.5,79,29.98,7.0,SSW,18.4,21.9,N/A,,Scattered Clouds,200,2014-05-13 13:15:00
9:35 AM,73.0,65.7,78,29.98,7.0,SSW,16.1,-,N/A,,Mostly Cloudy,210,2014-05-13 13:35:00
10:15 AM,73.8,65.8,76,29.98,7.0,SSW,15.0,24.2,N/A,,Scattered Clouds,210,2014-05-13 14:15:00
11:55 AM,77.7,66.6,68,29.98,10.0,SSW,18.4,25.3,N/A,,Mostly Cloudy,210,2014-05-13 15:55:00
12:35 PM,77.9,65.5,65,29.98,7.0,SW,20.7,27.6,N/A,,Overcast,220,2014-05-13 16:35:00
1:15 PM,80.1,65.1,60,29.97,10.0,SSW,20.7,26.5,N/A,,Mostly Cloudy,210,2014-05-13 17:15:00
1:35 PM,78.4,64.8,63,29.98,7.0,West,21.9,27.6,N/A,,Overcast,270,2014-05-13 17:35:00
1:55 PM,73.4,65.1,75,29.99,10.0,West,17.3,-,N/A,,Overcast,270,2014-05-13 17:55:00
2:15 PM,73.2,65.8,78,29.99,7.0,West,19.6,-,N/A,,Mostly Cloudy,270,2014-05-13 18:15:00
2:35 PM,71.4,64.9,80,30.00,5.0,West,16.1,-,0.03,Rain,Light Rain,270,2014-05-13 18:35:00
2:55 PM,70.9,64.9,81,30.01,5.0,West,16.1,23.0,0.04,,Haze,260,2014-05-13 18:55:00
3:15 PM,69.8,64.9,84,30.01,3.0,WSW,10.4,18.4,0.04,Rain,Light Rain,240,2014-05-13 19:15:00
3:35 PM,69.1,64.9,87,30.01,4.0,WSW,11.5,-,0.08,Rain,Rain,240,2014-05-13 19:35:00
3:55 PM,68.9,64.0,84,30.00,7.0,WSW,13.8,-,0.10,Rain,Light Rain,240,2014-05-13 19:55:00
4:15 PM,69.1,64.0,84,30.00,7.0,WSW,11.5,-,N/A,,Mostly Cloudy,250,2014-05-13 20:15:00
4:35 PM,70.5,65.5,84,30.01,10.0,WSW,12.7,-,N/A,,Mostly Cloudy,250,2014-05-13 20:35:00
4:55 PM,72.0,65.7,80,30.00,10.0,WSW,17.3,-,N/A,,Mostly Cloudy,250,2014-05-13 20:55:00
5:15 PM,71.8,64.6,78,30.01,7.0,WNW,19.6,27.6,N/A,,Mostly Cloudy,290,2014-05-13 21:15:00
5:35 PM,69.3,63.9,83,30.02,7.0,WNW,15.0,-,N/A,,Overcast,300,2014-05-13 21:35:00
5:55 PM,68.2,63.0,83,30.03,10.0,WNW,15.0,-,N/A,,Overcast,300,2014-05-13 21:55:00
6:15 PM,66.9,61.7,83,30.03,7.0,WNW,12.7,-,N/A,,Overcast,290,2014-05-13 22:15:00
6:35 PM,66.0,61.2,84,30.04,2.5,WNW,11.5,-,0.02,,Haze,290,2014-05-13 22:35:00
6:55 PM,64.9,61.2,88,30.04,1.8,WNW,12.7,-,0.03,,Overcast,300,2014-05-13 22:55:00
7:15 PM,63.7,60.3,89,30.04,1.5,WNW,15.0,18.4,0.02,,Overcast,300,2014-05-13 23:15:00
7:35 PM,62.6,59.0,88,30.05,5.0,WNW,12.7,-,0.03,,Overcast,300,2014-05-13 23:35:00
7:55 PM,61.9,58.1,87,30.05,10.0,WNW,12.7,-,0.03,,Overcast,300,2014-05-13 23:55:00
8:15 PM,61.0,57.0,87,30.06,2.0,WNW,13.8,-,0.04,Rain,Light Rain,300,2014-05-14 00:15:00
8:35 PM,59.9,56.7,89,30.07,4.0,WNW,11.5,-,0.05,,Overcast,300,2014-05-14 00:35:00
8:55 PM,59.4,56.1,89,30.08,10.0,WNW,10.4,-,0.05,,Overcast,300,2014-05-14 00:55:00
9:15 PM,59.4,55.4,87,30.10,10.0,WNW,12.7,-,N/A,,Overcast,290,2014-05-14 01:15:00
9:35 PM,59.0,54.7,86,30.10,5.0,WNW,10.4,-,N/A,,Overcast,300,2014-05-14 01:35:00
9:55 PM,58.5,54.0,85,30.11,7.0,WNW,10.4,-,N/A,,Overcast,300,2014-05-14 01:55:00
10:15 PM,57.7,53.8,87,30.11,5.0,WNW,8.1,-,0.02,Rain,Light Rain,290,2014-05-14 02:15:00
10:35 PM,57.2,54.3,90,30.12,4.0,WNW,9.2,-,0.05,Rain,Light Rain,300,2014-05-14 02:35:00
10:55 PM,56.5,53.6,90,30.14,5.0,West,9.2,-,0.06,Rain,Light Rain,280,2014-05-14 02:55:00
11:15 PM,56.7,54.1,91,30.14,4.0,WNW,8.1,-,N/A,,Overcast,290,2014-05-14 03:15:00
11:35 PM,56.3,53.6,91,30.13,5.0,WNW,10.4,-,N/A,,Overcast,300,2014-05-14 03:35:00